Simultaneous Nadir Overpasses (SNOs) Predictions

Prediction of SNOs between NPP and PACE Satellite Orbit:

Table of predicted SNOs for the next 14.0 days since TLE Epoch: 10/25/2025
Index Date (NPP) Time (NPP) Lat,Lon (NPP) SZA (NPP ) Date (PACE) Time (PACE) Lat,Lon (PACE) SZA (PACE ) Distance(km) Time Diff (sec)
1 10/26/2025 14:10:30 -80.16, 107.29 85.40 10/26/2025 14:10:21 -80.15, 107.40 85.41 2.31 9
2 10/28/2025 18:36:58 -80.17, 40.57 84.66 10/28/2025 18:37:07 -80.18, 40.52 84.65 1.10 9
3 10/30/2025 23:03:27 -80.21, -26.50 83.87 10/30/2025 23:03:53 -80.22, -26.53 83.87 0.69 26
4 10/30/2025 23:54:08 80.10, 142.09 95.93 10/30/2025 23:53:00 80.10, 142.16 95.95 1.52 68
5 11/02/2025 03:29:54 -80.20, -92.98 83.20 11/02/2025 03:30:37 -80.21, -93.13 83.20 2.92 43
6 11/02/2025 04:20:35 80.09, 75.60 96.61 11/02/2025 04:19:44 80.09, 75.56 96.63 0.77 51
7 11/04/2025 07:56:23 -80.25,-160.13 82.43 11/04/2025 07:57:22 -80.25,-160.20 82.45 1.30 59
8 11/04/2025 08:47:04 80.14, 8.47 97.37 11/04/2025 08:46:29 80.13, 8.52 97.37 1.10 35
9 11/06/2025 12:23:24 -80.96, 121.74 80.01 11/06/2025 12:24:37 -81.19, 122.55 79.97 29.77 73



Historial Predications of SNOs between NPP and PACE
